Location: ?????
(55.6500°N, 37.2500°E)
Time: 07:45:00
(UTC+00:00)

NOSS 2-1 (E) - Pass Details

Date: 19 May 2025
Orbit: 385 x 1749 km, 63.3° (Epoch: 07 May)

Event Time Altitude Azimuth Distance (km) Brightness Sun altitude
Exits shadow 22:21:20 - 257° (WSW) 1,809 5.7 -13.5°
Reaches altitude 10° 22:22:09 10° 261° (W) 1,471 5.3 -13.5°
Maximum altitude 22:25:07 39° 332° (NNW) 604 4.0 -13.4°
Drops below altitude 10° 22:28:01 10° 44° (NE) 1,438 6.4 -13.3°
Sets 22:30:10 0° 53° (NE) 2,352 7.4 -13.2°
